FW6553 Weather Reports


Display with metric or nautical units.
time (UTC)temp
F
wind
direction
speed
MPH
gust
MPH
rain 1hr
in
rain 24hr
in
rain mn
in
humidity
%
barometer
mb
20200331233323 37 198 4.0 13.0 0.00 0.00 0.61 89 1017.9
20200331232322 38 214 0.0 4.0 0.00 0.00 0.59 89 1018.3
20200331231322 39 262 3.0 5.0 0.00 0.00 0.56 90 1018.0
20200331230322 40 340 2.0 5.0 0.00 0.00 0.56 92 1017.6
20200331225322 38 306 0.0 7.0 0.00 0.00 0.55 91 1017.9
20200331224323 38 341 0.0 4.0 0.00 0.00 0.54 89 1018.1
20200331223322 38 321 3.0 9.0 0.00 0.00 0.53 89 1018.1
20200331222322 38 108 5.0 6.0 0.00 0.00 0.52 91 1017.6
20200331221322 36 153 4.0 6.0 0.00 0.00 0.52 91 1017.7
20200331220323 37 307 0.0 4.0 0.00 0.00 0.50 88 1018.1
20200331215323 39 290 3.0 9.0 0.00 0.00 0.47 83 1018.1
20200331214323 43 226 2.0 15.0 0.00 0.00 0.46 78 1017.7
20200331213324 44 306 0.0 11.0 0.00 0.00 0.45 79 1017.4
20200331212322 43 177 3.0 13.0 0.00 0.00 0.45 85 1017.4
20200331211323 41 163 4.0 8.0 0.00 0.00 0.45 90 1017.3
20200331210324 39 105 1.0 7.0 0.00 0.00 0.45 95 1017.4
20200331205324 38 148 3.0 9.0 0.00 0.00 0.45 93 1017.5
20200331204322 36 114 4.0 4.0 0.00 0.00 0.45 91 1017.6
20200331203323 35 205 0.0 4.0 0.00 0.00 0.43 89 1017.8
20200331202323 36 24 0.0 5.0 0.00 0.00 0.40 88 1018.1
20200331201322 38 50 1.0 7.0 0.00 0.00 0.38 85 1018.0
20200331200323 41 193 2.0 14.0 0.00 0.00 0.35 79 1017.8
20200331195322 44 155 2.0 8.0 0.00 0.00 0.34 74 1017.4
20200331194322 45 212 4.0 11.0 0.00 0.00 0.34 75 1017.2
20200331193323 44 205 5.0 10.0 0.00 0.00 0.34 78 1016.9
20200331192323 44 217 2.0 16.0 0.00 0.00 0.34 79 1016.9
20200331191323 44 169 1.0 10.0 0.00 0.00 0.34 79 1016.8
20200331190323 43 323 3.0 11.0 0.00 0.00 0.34 80 1017.0
20200331185323 42 277 0.0 16.0 0.00 0.00 0.34 83 1016.8
20200331184323 42 262 0.0 4.0 0.00 0.00 0.34 90 1016.8
20200331183323 41 339 2.0 8.0 0.00 0.00 0.34 91 1016.9
20200331182323 39 27 3.0 6.0 0.00 0.00 0.34 93 1017.0
20200331181323 37 296 1.0 7.0 0.00 0.00 0.34 92 1016.8
20200331180323 36 260 0.0 5.0 0.00 0.00 0.34 93 1017.0
20200331175323 36 345 4.0 6.0 0.00 0.00 0.33 93 1017.0
20200331174323 36 326 0.0 5.0 0.00 0.00 0.32 93 1016.8
20200331173323 36 359 0.0 3.0 0.00 0.00 0.32 95 1016.7
20200331172323 36 347 1.0 5.0 0.00 0.00 0.31 93 1016.5
20200331171323 36 18 3.0 7.0 0.00 0.00 0.31 94 1016.5
20200331170323 36 59 5.0 8.0 0.00 0.00 0.31 92 1016.5
20200331165323 38 33 3.0 8.0 0.00 0.00 0.31 92 1016.3
20200331164323 38 338 2.0 6.0 0.00 0.00 0.31 95 1016.0
20200331163323 36 339 1.0 3.0 0.00 0.00 0.31 96 1016.0
20200331162323 35 350 1.0 5.0 0.00 0.00 0.31 94 1016.0
20200331161323 36 348 1.0 8.0 0.00 0.00 0.31 93 1016.1
20200331160323 37 59 0.0 0.0 0.00 0.00 0.28 95 1015.9
20200331155323 37 60 0.0 2.0 0.00 0.00 0.28 96 1015.5
20200331154323 37 73 2.0 2.0 0.00 0.00 0.28 96 1015.1
20200331153323 37 51 1.0 2.0 0.00 0.00 0.28 97 1015.0
20200331152323 36 54 0.0 0.0 0.00 0.00 0.28 96 1014.9
20200331151323 36 356 0.0 1.0 0.00 0.00 0.28 96 1014.7
20200331150323 35 131 0.0 1.0 0.00 0.00 0.28 96 1014.7
20200331145323 35 35 0.0 1.0 0.00 0.00 0.28 96 1014.8
20200331144323 34 36 0.0 3.0 0.00 0.00 0.28 96 1014.7
20200331143323 34 83 0.0 0.0 0.00 0.00 0.28 96 1014.8
20200331142323 34 110 0.0 0.0 0.00 0.00 0.28 96 1014.7
20200331141323 34 110 0.0 2.0 0.00 0.00 0.28 96 1014.4
20200331140324 34 170 0.0 3.0 0.00 0.00 0.28 96 1014.2
20200331135323 34 214 6.0 6.0 0.00 0.00 0.28 96 1014.4
20200331134323 34 159 1.0 3.0 0.00 0.00 0.27 95 1014.2
20200331133323 34 146 1.0 5.0 0.00 0.00 0.26 95 1014.1
20200331132323 34 190 2.0 7.0 0.00 0.00 0.25 95 1014.2
20200331131323 34 154 3.0 5.0 0.00 0.00 0.24 96 1014.1
20200331130323 34 213 1.0 4.0 0.00 0.00 0.23 96 1014.2
20200331125323 34 120 0.0 0.0 0.00 0.00 0.23 96 1014.2
20200331124323 35 109 0.0 2.0 0.00 0.00 0.23 96 1014.2
20200331123323 35 68 0.0 1.0 0.00 0.00 0.23 96 1014.3
20200331122323 35 26 1.0 5.0 0.00 0.00 0.21 96 1014.3
20200331121323 35 340 1.0 3.0 0.00 0.00 0.20 96 1014.5
20200331120323 35 266 0.0 0.0 0.00 0.00 0.19 96 1014.6
20200331115323 35 340 0.0 1.0 0.00 0.00 0.17 96 1014.2
20200331114323 34 224 0.0 2.0 0.00 0.00 0.17 96 1014.2
20200331113323 34 121 1.0 3.0 0.00 0.00 0.17 96 1013.9
20200331112323 34 107 0.0 0.0 0.00 0.00 0.17 96 1013.9
20200331111324 34 164 0.0 0.0 0.00 0.00 0.16 96 1014.1
20200331110323 34 176 0.0 2.0 0.00 0.00 0.16 96 1014.1
20200331105323 34 169 0.0 0.0 0.00 0.00 0.15 96 1013.9
20200331104323 34 169 0.0 0.0 0.00 0.00 0.14 96 1014.0
20200331103323 34 159 0.0 0.0 0.00 0.00 0.13 96 1014.0
20200331102323 34 159 0.0 2.0 0.00 0.00 0.13 96 1014.0
20200331101323 34 147 0.0 1.0 0.00 0.00 0.13 96 1014.3
20200331100323 34 128 0.0 0.0 0.00 0.00 0.12 96 1014.4
20200331095323 34 56 0.0 6.0 0.00 0.00 0.10 96 1014.2
20200331094323 34 41 3.0 3.0 0.00 0.00 0.09 96 1013.8
20200331093323 34 44 2.0 2.0 0.00 0.00 0.09 96 1014.3
20200331092323 34 159 0.0 1.0 0.00 0.00 0.08 96 1014.4
20200331091323 34 60 0.0 0.0 0.00 0.00 0.07 96 1014.0
20200331090323 34 50 0.0 1.0 0.00 0.00 0.07 96 1014.0
20200331085323 34 215 0.0 1.0 0.00 0.00 0.06 96 1014.2
20200331084323 34 218 0.0 0.0 0.00 0.00 0.06 96 1014.2
20200331083324 34 198 0.0 1.0 0.00 0.00 0.06 96 1014.3
20200331082323 34 37 0.0 0.0 0.00 0.00 0.06 96 1014.3
20200331081323 34 37 0.0 0.0 0.00 0.00 0.06 96 1014.4
20200331080324 34 187 0.0 0.0 0.00 0.00 0.05 96 1014.8
20200331075323 34 211 0.0 1.0 0.00 0.00 0.04 96 1014.7
20200331074324 34 195 0.0 0.0 0.00 0.00 0.03 96 1014.7
20200331073323 34 336 0.0 0.0 0.00 0.00 0.03 95 1014.4
20200331072324 34 336 0.0 0.0 0.00 0.00 0.02 95 1014.7
20200331071324 34 335 0.0 0.0 0.00 0.00 0.02 95 1014.7
20200331070323 34 335 0.0 0.0 0.00 0.00 0.01 95 1014.7
20200331065324 34 336 0.0 0.0 0.00 0.00 1.17 95 1014.7
20200331064323 35 335 0.0 1.0 0.00 0.00 1.17 95 1014.7
20200331063324 35 351 0.0 1.0 0.00 0.00 1.16 95 1014.6
20200331062324 35 271 0.0 0.0 0.00 0.00 1.14 95 1014.5
20200331061324 36 270 0.0 1.0 0.00 0.00 1.12 95 1014.8
20200331060324 36 287 0.0 1.0 0.00 0.00 1.10 95 1014.7
20200331055325 36 298 0.0 0.0 0.00 0.00 1.09 95 1014.5
20200331054324 36 214 0.0 0.0 0.00 0.00 1.09 95 1014.4
20200331053324 36 214 0.0 1.0 0.00 0.00 1.07 95 1014.6
20200331052324 36 63 0.0 0.0 0.00 0.00 1.06 95 1014.7
20200331051324 36 63 0.0 0.0 0.00 0.00 1.06 95 1014.7
20200331050324 36 63 0.0 1.0 0.00 0.00 1.06 95 1014.6
20200331045324 36 46 1.0 1.0 0.00 0.00 1.05 95 1014.6
20200331044324 36 4 0.0 0.0 0.00 0.00 1.04 95 1014.9
20200331043324 36 5 0.0 0.0 0.00 0.00 1.04 95 1014.8
20200331042324 36 4 0.0 2.0 0.00 0.00 1.03 94 1014.9
20200331041325 36 9 0.0 1.0 0.00 0.00 1.03 94 1014.8
20200331040324 36 44 0.0 0.0 0.00 0.00 1.02 94 1014.8
20200331035325 36 44 0.0 0.0 0.00 0.00 1.02 94 1014.6
20200331034325 37 44 0.0 0.0 0.00 0.00 1.02 94 1014.6
20200331033324 37 44 0.0 2.0 0.00 0.00 1.01 94 1014.6
20200331032324 37 61 2.0 2.0 0.00 0.00 1.01 93 1014.8
20200331031324 37 45 0.0 2.0 0.00 0.00 1.00 93 1015.0
20200331030325 37 6 0.0 1.0 0.00 0.00 0.99 93 1015.0
20200331025324 38 342 0.0 1.0 0.00 0.00 0.98 93 1014.9
20200331024326 38 343 0.0 1.0 0.00 0.00 0.97 93 1014.8
20200331023324 38 274 0.0 1.0 0.00 0.00 0.96 92 1014.7
20200331022324 38 212 0.0 1.0 0.00 0.00 0.95 92 1014.5
20200331021324 38 212 0.0 1.0 0.00 0.00 0.94 91 1014.5
20200331020324 39 226 0.0 1.0 0.00 0.00 0.94 91 1014.4
20200331015324 39 233 0.0 1.0 0.00 0.00 0.93 91 1014.4
20200331014324 39 141 0.0 2.0 0.00 0.00 0.92 90 1014.4
20200331013325 39 145 0.0 0.0 0.00 0.00 0.92 90 1014.5
20200331012324 39 145 0.0 0.0 0.00 0.00 0.91 90 1014.3
20200331011324 39 145 0.0 2.0 0.00 0.00 0.91 88 1014.2
20200331010324 39 208 1.0 3.0 0.00 0.00 0.91 87 1014.3
20200331005324 40 248 0.0 4.0 0.00 0.00 0.89 86 1014.2
20200331004324 40 212 1.0 9.0 0.00 0.00 0.88 85 1014.3
20200331003324 40 207 0.0 5.0 0.00 0.00 0.87 86 1014.4
20200331002325 40 245 0.0 4.0 0.00 0.00 0.87 86 1014.7
20200331001325 40 315 0.0 10.0 0.00 0.00 0.87 86 1014.6
20200331000324 40 176 0.0 10.0 0.00 0.00 0.87 85 1014.6
20200330235325 40 102 0.0 19.0 0.00 0.00 0.86 86 1014.5
20200330234324 40 358 0.0 10.0 0.00 0.00 0.86 87 1014.6